Regional Weather Roundup
Issued by NWS

Home | Current Version | Previous Version | Text Only | Print | Product List | Glossary On
Versions: 1 2 3 4 5 6 7 8 9 10 11 12 13 14 15 16 17 18 19 20 21 22 23 24 25 26 27 28 29 30 31 32 33 34 35 36 37 38 39 40 41 42 43 44 45 46 47 48 49 50
000
ASUS43 KDTX 011810
RWRMI
MICHIGAN HOURLY REGIONAL WEATHER ROUNDUP
NATIONAL WEATHER SERVICE DETROIT/PONTIAC MI
200 PM EDT TUE SEP 01 2015

NOTE: "FAIR" INDICATES FEW OR NO CLOUDS BELOW 12,000 FEET WITH NO
SIGNIFICANT WEATHER AND/OR OBSTRUCTION TO VISIBILITY.

MIZ047>049-052>055-059>063-066>070-074>076-081>083-011900-
SOUTHEAST LOWER MICHIGAN

CITY           SKY/WX    TMP DP  RH WIND       PRES   REMARKS
ADRIAN         MOSUNNY   86  67  52 W7        30.09F
6HR MIN TEMP:  64; 6HR MAX TEMP:  87;

ALMA           MOSUNNY   84  70  63 W5        30.06S
ANN ARBOR      MOSUNNY   87  68  52 W6        30.08F HX  90
BAD AXE        MOSUNNY   81  69  67 W5        30.07F
CARO           MOSUNNY   83  71  68 W7        30.06F
DETROIT CITY   PTSUNNY   87  67  51 SW9       30.06F HX  90
6HR MIN TEMP:  68; 6HR MAX TEMP:  88;

DETROIT        MOSUNNY   88  68  51 S9        30.08F HX  91
6HR MIN TEMP:  69; 6HR MAX TEMP:  88;

FLINT          MOSUNNY   90  69  50 W8        30.07F HX  94
6HR MIN TEMP:  64; 6HR MAX TEMP:  90;

GROSSE ILE     SUNNY     81  73  78 S8        30.07F HAZE
HILLSDALE      MOSUNNY   86  69  57 W6        30.10F
6HR MIN TEMP:  68; 6HR MAX TEMP:  86;

HOWELL         MOSUNNY   86  64  48 SW5       30.08F
6HR MIN TEMP:  64; 6HR MAX TEMP:  88;


CITY           SKY/WX    TMP DP  RH WIND       PRES   REMARKS
JACKSON        SUNNY     85  69  58 SW10      30.08F
6HR MIN TEMP:  64; 6HR MAX TEMP:  85;

LAMBERTVILLE   MOSUNNY   86  69  56 W6        30.09F
6HR MIN TEMP:  66; 6HR MAX TEMP:  88;

LANSING        MOSUNNY   86  68  54 SW10      30.07F
6HR MIN TEMP:  64; 6HR MAX TEMP:  86;

LAPEER         PTSUNNY   85  67  55 W6        30.08S
6HR MIN TEMP:  57; 6HR MAX TEMP:  85;

MASON          PTSUNNY   85  66  52 SW8       30.08F
6HR MIN TEMP:  65; 6HR MAX TEMP:  86;

MONROE         MOSUNNY   87  69  54 W9        30.07S HX  92
6HR MIN TEMP:  64; 6HR MAX TEMP:  88;

MT. CLEMENS    MOSUNNY   82  71  69 VRB7      30.06F HAZE
6HR MIN TEMP:  63; 6HR MAX TEMP:  83;

PONTIAC        MOSUNNY   86  67  52 W6        30.07F
6HR MIN TEMP:  63; 6HR MAX TEMP:  87;

PORT HOPE        N/A     74  69  85 E6        30.04F
6HR MIN TEMP:  65; 6HR MAX TEMP:  80;

PORT HURON     MOSUNNY   82  70  65 W3        30.07F
TRI CITIES     MOSUNNY   85  69  58 SW9       30.06F
6HR MIN TEMP:  65; 6HR MAX TEMP:  86;

MIDLAND        FAIR      86  69  56 SW6       30.04S
6HR MIN TEMP:  60; 6HR MAX TEMP:  86;

TROY           SUNNY     89  65  45 SW8       30.08F HX  90
SAGINAW HB     MOSUNNY   84  72  65 SW6       30.05F
$$
MIZ043>046-050>051-056>058-064>065-071>073-077>080-011900-
SOUTHWEST LOWER MICHIGAN

CITY           SKY/WX    TMP DP  RH WIND       PRES   REMARKS
BATTLE CREEK   MOSUNNY   86  71  60 S12       30.08F HX  91
6HR MIN TEMP:  68; 6HR MAX TEMP:  86;

BENTON HARBOR  PTSUNNY   85  73  67 SW9       30.05F HX  91
6HR MIN TEMP:  68; 6HR MAX TEMP:  86;

BIG RAPIDS     MOSUNNY   84  69  58 SW8       30.04S
6HR MIN TEMP:  57; 6HR MAX TEMP:  84;

COLDWATER      PTSUNNY   84  69  60 SW7       30.09F
6HR MIN TEMP:  68; 6HR MAX TEMP:  85;

FREMONT        PTSUNNY   85  74  68 S8        30.03F HX  92
HOLLAND        SUNNY     86  73  65 SW12      30.06F HX  93
6HR MIN TEMP:  67; 6HR MAX TEMP:  86;

GRAND RAPIDS   MOSUNNY   86  71  60 SW12      30.05F HX  91
6HR MIN TEMP:  66; 6HR MAX TEMP:  86;

IONIA          FAIR      87  67  52 SW7       30.05F HX  90
KALAMAZOO      MOSUNNY   85  69  58 S10       30.07F
6HR MIN TEMP:  67; 6HR MAX TEMP:  87;

LUDINGTON      SUNNY     83  73  71 W9        30.01F HX  90
6HR MIN TEMP:  64; 6HR MAX TEMP:  85;

MARSHALL       SUNNY     86  67  54 SW6       30.08F
6HR MIN TEMP:  67; 6HR MAX TEMP:  86;

MOUNT PLEASANT SUNNY     88  67  49 S5        30.04S HX  91
6HR MIN TEMP:  61; 6HR MAX TEMP:  89;

MUSKEGON       MOSUNNY   83  71  67 S13       30.04F
6HR MIN TEMP:  66; 6HR MAX TEMP:  83;

SOUTH HAVEN    MOSUNNY   84  73  67 SW7       30.05F HX  90
$$
MIZ016>042-011900-
NORTHERN LOWER MICHIGAN

CITY           SKY/WX    TMP DP  RH WIND       PRES   REMARKS
ALPENA         PTSUNNY   85  68  56 S12       30.01F
6HR MIN TEMP:  62; 6HR MAX TEMP:  85;

BEAVER ISLAND  SUNNY     80  69  67 SW13G18   29.98F
6HR MIN TEMP:  68; 6HR MAX TEMP:  81;

BELLAIRE       PTSUNNY   86  68  54 S8        29.99F
6HR MIN TEMP:  59; 6HR MAX TEMP:  86;

CADILLAC       MOSUNNY   84  69  60 SW10      30.04F
CHARLEVOIX     MOSUNNY   85  70  61 SW5       30.02S
6HR MIN TEMP:  65; 6HR MAX TEMP:  85;

FRANKFORT      SUNNY     82  72  72 W6        30.00S
GAYLORD        MOSUNNY   83  67  58 S12       30.03F
6HR MIN TEMP:  62; 6HR MAX TEMP:  83;

GRAYLING       SUNNY     85  69  57 W6        30.04F
6HR MIN TEMP:  57; 6HR MAX TEMP:  85;

HARBOR SPRINGS SUNNY     84  71  65 W3        29.99F
HOUGHTON LAKE  MOSUNNY   83  68  60 SW5       30.05F
6HR MIN TEMP:  57; 6HR MAX TEMP:  84;

MANISTEE       MOSUNNY   86  70  58 S7        30.00F HX  90
OSCODA         MOSUNNY   84  68  58 S3        30.01F
6HR MIN TEMP:  61; 6HR MAX TEMP:  85;

PELLSTON       PTSUNNY   85  70  60 SW12      29.99F
6HR MIN TEMP:  65; 6HR MAX TEMP:  85;

ROGERS CITY    MOSUNNY   85  67  55 SW5       30.01S
TRAVERSE CITY  PTSUNNY   88  70  55 SW9       29.98F HX  93
6HR MIN TEMP:  65; 6HR MAX TEMP:  88;

$$
MIZ007>008-015-011900-
EASTERN UPPER MICHIGAN

CITY           SKY/WX    TMP DP  RH WIND       PRES   REMARKS
KINROSS        MOSUNNY   82  70  65 SW13G18   29.98F
6HR MIN TEMP:  66; 6HR MAX TEMP:  82;

MACKINAC ISLAN CLOUDY    77  68  75 W5        30.00S
NEWBERRY       MOSUNNY   81  70  69 S13G18    29.96F
6HR MIN TEMP:  66; 6HR MAX TEMP:  82;

S. S. MARIE    PTSUNNY   81  71  71 VRB3      29.96
6HR MIN TEMP:  65; 6HR MAX TEMP:  82;

MUNISING         N/A     87  72  60 S10       29.91F HX  93
6HR MIN TEMP:  71; 6HR MAX TEMP:  87;

$$
MIZ004>006-011>014-085-011900-
CENTRAL UPPER MICHIGAN

CITY           SKY/WX    TMP DP  RH WIND       PRES   REMARKS
MANISTIQUE     PTSUNNY   71  66  85 S9        29.97F HAZE
6HR MIN TEMP:  64; 6HR MAX TEMP:  72;

ESCANABA       PTSUNNY   75  68  78 S10       29.93F
6HR MIN TEMP:  61; 6HR MAX TEMP:  75;

MENOMINEE      MOSUNNY   82  72  69 S7        29.93F
6HR MIN TEMP:  66; 6HR MAX TEMP:  82;

SAWYER-GWINN   MOSUNNY   84  70  61 SW13      29.94F
$$
MIZ001>003-009>011-084-011900-
WESTERN UPPER MICHIGAN

CITY           SKY/WX    TMP DP  RH WIND       PRES   REMARKS
IRON MOUNTAIN  MOSUNNY   85  69  58 SW8       29.93F
6HR MIN TEMP:  63; 6HR MAX TEMP:  86;

HOUGHTON       PTSUNNY   80  69  69 NW14      29.90F
6HR MIN TEMP:  65; 6HR MAX TEMP:  81;

IRONWOOD       PTSUNNY   79  70  73 SW9       29.89F
6HR MIN TEMP:  72; 6HR MAX TEMP:  79;

$$

ABBREVIATIONS USED IN REMARKS
   TC - TEMPERATURE IN CELSIUS
  WCI - WIND CHILL INDEX
   HX - HEAT INDEX
  VSB - VISIBILITY




USA.gov is the U.S. government's official web portal to all federal, state and local government web resources and services.